View from above orbital plane
|
View from above satellite
|
Ground track
|
The orbit data is extracted from the following two-line orbital elements,
1 13403U 82079B 21015.57827944 -.00000274 00000-0 -19492-4 0 9996
2 13403 81.1677 209.8427 0031761 282.9758 76.7920 15.07300128 93565
Epoch (UTC): | 15 January 2021 13:52:43 |
Eccentricity: | 0.0031761 |
inclination: | 81.1677° |
perigee height: | 522 km |
apogee height: | 566 km |
right ascension of ascending node: | 209.8427° |
argument of perigee: | 282.9758° |
revolutions per day: | 15.07300128 |
mean anomaly at epoch: | 76.7920° |
orbit number at epoch: | 9356 |
The dashed part of the orbit path shows where the satellite is in the earth's shadow,
|
|